Time,TemperatureF,DewpointF,PressureIn,WindDirection,WindDirectionDegrees,WindSpeedMPH,WindSpeedGustMPH,Humidity,HourlyPrecipIn,Conditions,Clouds,dailyrainin,SoftwareType,DateUTC
2013-01-30 00:00:00,27.0,15.3,30.22,North,349,5.0,5.0,61,0.00,,,0.00,Wunderground v.1.15,2013-01-30 07:00:00,
2013-01-30 00:10:00,27.1,15.4,30.22,NE,46,4.0,4.0,61,0.00,,,0.00,Wunderground v.1.15,2013-01-30 07:10:00,
2013-01-30 00:20:00,27.1,15.4,30.23,NE,36,4.0,6.0,61,0.00,,,0.00,Wunderground v.1.15,2013-01-30 07:20:00,
2013-01-30 00:25:00,27.1,15.4,30.23,NNE,20,5.0,6.0,61,0.00,,,0.00,Wunderground v.1.15,2013-01-30 07:25:00,
2013-01-30 00:35:00,27.0,15.3,30.23,North,8,4.0,5.0,61,0.00,,,0.00,Wunderground v.1.15,2013-01-30 07:35:00,
2013-01-30 00:45:00,26.8,15.5,30.23,NNE,18,3.0,4.0,62,0.00,,,0.00,Wunderground v.1.15,2013-01-30 07:45:00,
2013-01-30 00:55:00,26.7,15.0,30.24,NE,36,4.0,6.0,61,0.00,,,0.00,Wunderground v.1.15,2013-01-30 07:55:00,
2013-01-30 01:00:00,26.6,14.9,30.25,North,3,4.0,4.0,61,0.00,,,0.00,Wunderground v.1.15,2013-01-30 08:00:00,
2013-01-30 01:10:00,26.6,14.9,30.25,North,359,5.0,5.0,61,0.00,,,0.00,Wunderground v.1.15,2013-01-30 08:10:00,
2013-01-30 01:15:00,26.5,15.2,30.25,NNE,25,5.0,8.0,62,0.00,,,0.00,Wunderground v.1.15,2013-01-30 08:15:00,
2013-01-30 01:25:00,26.5,14.9,30.26,ENE,65,6.0,7.0,61,0.00,,,0.00,Wunderground v.1.15,2013-01-30 08:25:00,
2013-01-30 01:35:00,26.3,15.0,30.27,North,360,5.0,6.0,62,0.00,,,0.00,Wunderground v.1.15,2013-01-30 08:35:00,
2013-01-30 01:45:00,26.2,14.9,30.27,NNW,342,5.0,5.0,62,0.00,,,0.00,Wunderground v.1.15,2013-01-30 08:45:00,
2013-01-30 01:50:00,26.2,14.9,30.28,NE,53,4.0,5.0,62,0.00,,,0.00,Wunderground v.1.15,2013-01-30 08:50:00,
2013-01-30 02:00:00,26.1,15.2,30.28,NNE,13,3.0,3.0,63,0.00,,,0.00,Wunderground v.1.15,2013-01-30 09:00:00,
2013-01-30 02:10:00,25.9,15.0,30.29,NW,319,2.0,5.0,63,0.00,,,0.00,Wunderground v.1.15,2013-01-30 09:10:00,
2013-01-30 02:20:00,25.6,14.7,30.29,NW,323,2.0,2.0,63,0.00,,,0.00,Wunderground v.1.15,2013-01-30 09:20:00,
2013-01-30 02:30:00,25.5,14.6,30.30,NNW,332,3.0,3.0,63,0.00,,,0.00,Wunderground v.1.15,2013-01-30 09:30:00,
2013-01-30 02:40:00,25.3,14.5,30.30,NNW,336,3.0,3.0,63,0.00,,,0.00,Wunderground v.1.15,2013-01-30 09:40:00,
2013-01-30 02:45:00,25.2,14.4,30.30,NNW,334,3.0,3.0,63,0.00,,,0.00,Wunderground v.1.15,2013-01-30 09:45:00,
2013-01-30 02:55:00,25.1,14.3,30.30,NNW,332,4.0,4.0,63,0.00,,,0.00,Wunderground v.1.15,2013-01-30 09:55:00,
2013-01-30 03:00:00,25.0,14.2,30.30,North,349,4.0,4.0,63,0.00,,,0.00,Wunderground v.1.15,2013-01-30 10:00:00,
2013-01-30 03:10:00,24.7,13.9,30.31,NNW,342,2.0,2.0,63,0.00,,,0.00,Wunderground v.1.15,2013-01-30 10:10:00,
2013-01-30 03:15:00,24.6,13.8,30.31,NNE,26,2.0,2.0,63,0.00,,,0.00,Wunderground v.1.15,2013-01-30 10:15:00,
2013-01-30 03:20:00,24.4,14.0,30.31,NNW,344,1.0,1.0,64,0.00,,,0.00,Wunderground v.1.15,2013-01-30 10:20:00,
2013-01-30 03:30:00,24.4,13.6,30.32,NNW,327,3.0,3.0,63,0.00,,,0.00,Wunderground v.1.15,2013-01-30 10:30:00,
2013-01-30 03:40:00,24.3,13.9,30.32,North,5,3.0,4.0,64,0.00,,,0.00,Wunderground v.1.15,2013-01-30 10:40:00,
2013-01-30 03:50:00,24.2,13.8,30.32,WNW,300,4.0,4.0,64,0.00,,,0.00,Wunderground v.1.15,2013-01-30 10:50:00,
2013-01-30 03:55:00,24.1,14.0,30.32,NNE,20,3.0,9.0,65,0.00,,,0.00,Wunderground v.1.15,2013-01-30 10:55:00,
2013-01-30 04:00:00,24.0,13.9,30.32,NW,323,4.0,7.0,65,0.00,,,0.00,Wunderground v.1.15,2013-01-30 11:00:00,
2013-01-30 04:10:00,23.9,14.2,30.32,NW,324,5.0,5.0,66,0.00,,,0.00,Wunderground v.1.15,2013-01-30 11:10:00,
2013-01-30 04:20:00,23.7,14.3,30.32,North,8,4.0,4.0,67,0.00,,,0.00,Wunderground v.1.15,2013-01-30 11:20:00,
2013-01-30 04:25:00,23.6,14.2,30.32,NNW,340,4.0,4.0,67,0.00,,,0.00,Wunderground v.1.15,2013-01-30 11:25:00,
2013-01-30 04:30:00,23.6,14.2,30.33,NNW,335,5.0,5.0,67,0.00,,,0.00,Wunderground v.1.15,2013-01-30 11:30:00,
2013-01-30 04:40:00,23.7,14.0,30.33,NNW,340,6.0,6.0,66,0.00,,,0.00,Wunderground v.1.15,2013-01-30 11:40:00,
2013-01-30 04:45:00,23.6,13.9,30.33,North,4,5.0,6.0,66,0.00,,,0.00,Wunderground v.1.15,2013-01-30 11:45:00,
2013-01-30 04:55:00,23.4,13.7,30.33,North,11,3.0,4.0,66,0.00,,,0.00,Wunderground v.1.15,2013-01-30 11:55:00,
2013-01-30 05:00:00,23.2,13.9,30.34,NNW,340,3.0,3.0,67,0.00,,,0.00,Wunderground v.1.15,2013-01-30 12:00:00,
2013-01-30 05:10:00,23.1,13.4,30.34,ENE,58,3.0,6.0,66,0.00,,,0.00,Wunderground v.1.15,2013-01-30 12:10:00,
2013-01-30 05:15:00,23.2,13.2,30.34,NNW,340,4.0,6.0,65,0.00,,,0.00,Wunderground v.1.15,2013-01-30 12:15:00,
2013-01-30 05:20:00,23.3,12.9,30.35,NNW,340,6.0,6.0,64,0.00,,,0.00,Wunderground v.1.15,2013-01-30 12:20:00,
2013-01-30 05:25:00,23.4,13.0,30.35,NNW,336,5.0,6.0,64,0.00,,,0.00,Wunderground v.1.15,2013-01-30 12:25:00,
2013-01-30 05:35:00,23.4,13.0,30.36,NNW,329,5.0,5.0,64,0.00,,,0.00,Wunderground v.1.15,2013-01-30 12:35:00,
2013-01-30 05:40:00,23.4,13.0,30.36,North,355,5.0,5.0,64,0.00,,,0.00,Wunderground v.1.15,2013-01-30 12:40:00,
2013-01-30 05:50:00,23.2,12.8,30.36,NNW,345,4.0,5.0,64,0.00,,,0.00,Wunderground v.1.15,2013-01-30 12:50:00,
2013-01-30 05:55:00,23.1,12.7,30.37,NNW,328,4.0,7.0,64,0.00,,,0.00,Wunderground v.1.15,2013-01-30 12:55:00,
2013-01-30 06:00:00,23.1,12.7,30.37,NNE,12,4.0,5.0,64,0.00,,,0.00,Wunderground v.1.15,2013-01-30 13:00:00,
2013-01-30 06:10:00,22.9,12.9,30.38,North,1,4.0,4.0,65,0.00,,,0.00,Wunderground v.1.15,2013-01-30 13:10:00,
2013-01-30 06:15:00,22.7,12.7,30.38,North,7,4.0,4.0,65,0.00,,,0.00,Wunderground v.1.15,2013-01-30 13:15:00,
2013-01-30 06:20:00,22.6,12.6,30.39,NNW,346,3.0,5.0,65,0.00,,,0.00,Wunderground v.1.15,2013-01-30 13:20:00,
2013-01-30 06:30:00,22.7,12.3,30.39,NNE,32,5.0,5.0,64,0.00,,,0.00,Wunderground v.1.15,2013-01-30 13:30:00,
2013-01-30 06:40:00,22.8,12.4,30.39,WNW,295,4.0,4.0,64,0.00,,,0.00,Wunderground v.1.15,2013-01-30 13:40:00,
2013-01-30 06:45:00,22.8,12.4,30.39,North,350,4.0,8.0,64,0.00,,,0.00,Wunderground v.1.15,2013-01-30 13:45:00,
2013-01-30 06:55:00,22.9,12.2,30.40,NNW,333,5.0,7.0,63,0.00,,,0.00,Wunderground v.1.15,2013-01-30 13:55:00,
2013-01-30 07:00:00,22.8,12.1,30.41,NNW,340,4.0,4.0,63,0.00,,,0.00,Wunderground v.1.15,2013-01-30 14:00:00,
2013-01-30 07:10:00,22.8,12.1,30.41,NNW,340,5.0,6.0,63,0.00,,,0.00,Wunderground v.1.15,2013-01-30 14:10:00,
2013-01-30 07:20:00,22.5,12.1,30.41,North,357,4.0,4.0,64,0.00,,,0.00,Wunderground v.1.15,2013-01-30 14:20:00,
2013-01-30 07:25:00,22.5,12.1,30.42,NW,316,3.0,4.0,64,0.00,,,0.00,Wunderground v.1.15,2013-01-30 14:25:00,
2013-01-30 07:35:00,22.4,12.4,30.42,NNW,337,3.0,6.0,65,0.00,,,0.00,Wunderground v.1.15,2013-01-30 14:35:00,
2013-01-30 07:40:00,22.7,12.3,30.42,North,349,5.0,8.0,64,0.00,,,0.00,Wunderground v.1.15,2013-01-30 14:40:00,
2013-01-30 07:50:00,24.0,12.1,30.43,NNW,330,6.0,6.0,60,0.00,,,0.00,Wunderground v.1.15,2013-01-30 14:50:00,
2013-01-30 07:55:00,24.6,12.3,30.44,NNW,340,6.0,6.0,59,0.00,,,0.00,Wunderground v.1.15,2013-01-30 14:55:00,
2013-01-30 08:00:00,25.0,12.3,30.43,North,1,5.0,7.0,58,0.00,,,0.00,Wunderground v.1.15,2013-01-30 15:00:00,
2013-01-30 08:10:00,25.5,12.8,30.44,NNE,20,5.0,5.0,58,0.00,,,0.00,Wunderground v.1.15,2013-01-30 15:10:00,
2013-01-30 08:15:00,25.7,12.9,30.44,North,1,5.0,5.0,58,0.00,,,0.00,Wunderground v.1.15,2013-01-30 15:15:00,
2013-01-30 08:25:00,26.0,12.8,30.44,NNE,29,5.0,9.0,57,0.00,,,0.00,Wunderground v.1.15,2013-01-30 15:25:00,
2013-01-30 08:35:00,26.2,13.0,30.44,NNE,27,6.0,6.0,57,0.00,,,0.00,Wunderground v.1.15,2013-01-30 15:35:00,
2013-01-30 08:40:00,26.4,13.2,30.45,NNW,330,6.0,6.0,57,0.00,,,0.00,Wunderground v.1.15,2013-01-30 15:40:00,
2013-01-30 08:45:00,26.7,13.5,30.45,NE,34,5.0,7.0,57,0.00,,,0.00,Wunderground v.1.15,2013-01-30 15:45:00,
2013-01-30 08:55:00,27.2,14.0,30.45,NW,322,5.0,5.0,57,0.00,,,0.00,Wunderground v.1.15,2013-01-30 15:55:00,
2013-01-30 09:00:00,27.4,14.1,30.45,North,358,4.0,5.0,57,0.00,,,0.00,Wunderground v.1.15,2013-01-30 16:00:00,
2013-01-30 09:10:00,28.2,13.7,30.45,NW,305,5.0,5.0,54,0.00,,,0.00,Wunderground v.1.15,2013-01-30 16:10:00,
2013-01-30 09:20:00,28.9,13.9,30.45,North,353,6.0,6.0,53,0.00,,,0.00,Wunderground v.1.15,2013-01-30 16:20:00,
2013-01-30 09:25:00,29.4,13.5,30.46,North,5,5.0,8.0,51,0.00,,,0.00,Wunderground v.1.15,2013-01-30 16:25:00,
2013-01-30 09:30:00,29.6,13.2,30.46,NNE,23,5.0,5.0,50,0.00,,,0.00,Wunderground v.1.15,2013-01-30 16:30:00,
2013-01-30 09:40:00,29.4,13.5,30.47,NW,322,6.0,6.0,51,0.00,,,0.00,Wunderground v.1.15,2013-01-30 16:40:00,
2013-01-30 09:50:00,29.6,13.7,30.47,NNE,13,5.0,5.0,51,0.00,,,0.00,Wunderground v.1.15,2013-01-30 16:50:00,
2013-01-30 10:00:00,30.4,13.0,30.47,NW,322,5.0,5.0,48,0.00,,,0.00,Wunderground v.1.15,2013-01-30 17:00:00,
2013-01-30 10:10:00,30.7,13.3,30.48,NW,311,5.0,5.0,48,0.00,,,0.00,Wunderground v.1.15,2013-01-30 17:10:00,
2013-01-30 10:15:00,30.8,12.9,30.48,WNW,291,5.0,7.0,47,0.00,,,0.00,Wunderground v.1.15,2013-01-30 17:15:00,
2013-01-30 10:20:00,30.8,12.9,30.48,NNW,327,6.0,6.0,47,0.00,,,0.00,Wunderground v.1.15,2013-01-30 17:20:00,
2013-01-30 10:30:00,30.7,12.3,30.49,WNW,299,5.0,7.0,46,0.00,,,0.00,Wunderground v.1.15,2013-01-30 17:30:00,
2013-01-30 10:35:00,31.0,11.6,30.49,NNW,342,4.0,7.0,44,0.00,,,0.00,Wunderground v.1.15,2013-01-30 17:35:00,
2013-01-30 10:45:00,32.0,10.9,30.49,WSW,242,5.0,6.0,41,0.00,,,0.00,Wunderground v.1.15,2013-01-30 17:45:00,
2013-01-30 10:50:00,32.1,9.9,30.48,NNE,33,5.0,11.0,39,0.00,,,0.00,Wunderground v.1.15,2013-01-30 17:50:00,
2013-01-30 11:00:00,33.7,7.6,30.47,North,5,9.0,14.0,33,0.00,,,0.00,Wunderground v.1.15,2013-01-30 18:00:00,
2013-01-30 11:05:00,34.1,7.3,30.48,North,356,10.0,16.0,32,0.00,,,0.00,Wunderground v.1.15,2013-01-30 18:05:00,
2013-01-30 11:15:00,34.0,7.2,30.48,North,360,12.0,12.0,32,0.00,,,0.00,Wunderground v.1.15,2013-01-30 18:15:00,
2013-01-30 11:20:00,34.5,7.6,30.47,WNW,302,9.0,9.0,32,0.00,,,0.00,Wunderground v.1.15,2013-01-30 18:20:00,
2013-01-30 11:25:00,34.9,7.3,30.47,NNW,339,9.0,10.0,31,0.00,,,0.00,Wunderground v.1.15,2013-01-30 18:25:00,
2013-01-30 11:35:00,35.0,7.4,30.47,NW,319,11.0,11.0,31,0.00,,,0.00,Wunderground v.1.15,2013-01-30 18:35:00,
2013-01-30 11:45:00,35.6,7.9,30.47,NW,314,9.0,11.0,31,0.00,,,0.00,Wunderground v.1.15,2013-01-30 18:45:00,
2013-01-30 11:55:00,35.9,7.4,30.46,NNW,338,9.0,13.0,30,0.00,,,0.00,Wunderground v.1.15,2013-01-30 18:55:00,
2013-01-30 12:00:00,36.0,7.5,30.46,NNW,335,11.0,20.0,30,0.00,,,0.00,Wunderground v.1.15,2013-01-30 19:00:00,
2013-01-30 12:10:00,36.2,7.7,30.45,NNW,348,12.0,13.0,30,0.00,,,0.00,Wunderground v.1.15,2013-01-30 19:10:00,
2013-01-30 12:15:00,36.3,8.5,30.45,NW,324,11.0,13.0,31,0.00,,,0.00,Wunderground v.1.15,2013-01-30 19:15:00,
2013-01-30 12:25:00,36.4,9.3,30.45,North,356,9.0,11.0,32,0.00,,,0.00,Wunderground v.1.15,2013-01-30 19:25:00,
2013-01-30 12:30:00,36.4,9.3,30.45,North,351,11.0,15.0,32,0.00,,,0.00,Wunderground v.1.15,2013-01-30 19:30:00,
2013-01-30 12:40:00,36.4,10.0,30.44,North,3,11.0,16.0,33,0.00,,,0.00,Wunderground v.1.15,2013-01-30 19:40:00,
2013-01-30 12:50:00,36.5,10.1,30.43,NNW,342,11.0,13.0,33,0.00,,,0.00,Wunderground v.1.15,2013-01-30 19:50:00,
2013-01-30 13:00:00,36.4,10.7,30.43,North,359,12.0,12.0,34,0.00,,,0.00,Wunderground v.1.15,2013-01-30 20:00:00,
2013-01-30 13:10:00,36.7,10.9,30.43,NNW,343,11.0,16.0,34,0.00,,,0.00,Wunderground v.1.15,2013-01-30 20:10:00,
2013-01-30 13:15:00,36.8,11.0,30.43,North,356,11.0,16.0,34,0.00,,,0.00,Wunderground v.1.15,2013-01-30 20:15:00,
2013-01-30 13:25:00,37.3,10.8,30.43,North,10,10.0,11.0,33,0.00,,,0.00,Wunderground v.1.15,2013-01-30 20:25:00,
2013-01-30 13:30:00,37.1,10.6,30.43,WNW,294,10.0,10.0,33,0.00,,,0.00,Wunderground v.1.15,2013-01-30 20:30:00,
2013-01-30 13:40:00,37.0,10.5,30.43,NW,319,9.0,9.0,33,0.00,,,0.00,Wunderground v.1.15,2013-01-30 20:40:00,
2013-01-30 13:45:00,37.3,10.8,30.42,WNW,301,9.0,9.0,33,0.00,,,0.00,Wunderground v.1.15,2013-01-30 20:45:00,
2013-01-30 13:55:00,37.7,11.1,30.42,NNW,331,8.0,10.0,33,0.00,,,0.00,Wunderground v.1.15,2013-01-30 20:55:00,
2013-01-30 14:00:00,37.6,11.7,30.42,WNW,288,7.0,7.0,34,0.00,,,0.00,Wunderground v.1.15,2013-01-30 21:00:00,
2013-01-30 14:10:00,38.5,11.1,30.41,NNW,335,7.0,7.0,32,0.00,,,0.00,Wunderground v.1.15,2013-01-30 21:10:00,
2013-01-30 14:15:00,38.4,11.1,30.41,NW,322,8.0,8.0,32,0.00,,,0.00,Wunderground v.1.15,2013-01-30 21:15:00,
2013-01-30 14:20:00,38.9,11.5,30.41,NW,321,8.0,9.0,32,0.00,,,0.00,Wunderground v.1.15,2013-01-30 21:20:00,
2013-01-30 14:30:00,38.9,11.5,30.41,NW,311,9.0,9.0,32,0.00,,,0.00,Wunderground v.1.15,2013-01-30 21:30:00,
2013-01-30 14:40:00,39.1,12.4,30.40,North,351,8.0,11.0,33,0.00,,,0.00,Wunderground v.1.15,2013-01-30 21:40:00,
2013-01-30 14:45:00,38.8,12.1,30.40,NNW,347,10.0,11.0,33,0.00,,,0.00,Wunderground v.1.15,2013-01-30 21:45:00,
2013-01-30 14:55:00,39.0,12.3,30.40,WSW,249,7.0,11.0,33,0.00,,,0.00,Wunderground v.1.15,2013-01-30 21:55:00,
2013-01-30 15:00:00,39.1,12.4,30.40,WNW,297,7.0,7.0,33,0.00,,,0.00,Wunderground v.1.15,2013-01-30 22:00:00,
2013-01-30 15:10:00,39.3,12.6,30.40,NNE,15,9.0,11.0,33,0.00,,,0.00,Wunderground v.1.15,2013-01-30 22:10:00,
2013-01-30 15:20:00,39.4,12.6,30.40,North,1,8.0,9.0,33,0.00,,,0.00,Wunderground v.1.15,2013-01-30 22:20:00,
2013-01-30 15:25:00,39.3,13.2,30.40,NW,315,9.0,11.0,34,0.00,,,0.00,Wunderground v.1.15,2013-01-30 22:25:00,
2013-01-30 15:35:00,40.1,13.9,30.40,NNW,327,7.0,10.0,34,0.00,,,0.00,Wunderground v.1.15,2013-01-30 22:35:00,
2013-01-30 15:45:00,39.9,13.8,30.40,NNW,340,10.0,10.0,34,0.00,,,0.00,Wunderground v.1.15,2013-01-30 22:45:00,
2013-01-30 15:50:00,40.2,14.0,30.40,North,356,8.0,8.0,34,0.00,,,0.00,Wunderground v.1.15,2013-01-30 22:50:00,
2013-01-30 16:00:00,40.4,14.2,30.40,WNW,302,7.0,7.0,34,0.00,,,0.00,Wunderground v.1.15,2013-01-30 23:00:00,
2013-01-30 16:10:00,40.4,14.2,30.40,NW,316,6.0,6.0,34,0.00,,,0.00,Wunderground v.1.15,2013-01-30 23:10:00,
2013-01-30 16:15:00,40.6,14.4,30.40,NNW,346,5.0,11.0,34,0.00,,,0.00,Wunderground v.1.15,2013-01-30 23:15:00,
2013-01-30 16:25:00,40.7,14.5,30.41,NW,315,6.0,6.0,34,0.00,,,0.00,Wunderground v.1.15,2013-01-30 23:25:00,
2013-01-30 16:30:00,40.7,14.5,30.40,NW,308,5.0,11.0,34,0.00,,,0.00,Wunderground v.1.15,2013-01-30 23:30:00,
2013-01-30 16:40:00,40.6,13.7,30.40,WNW,290,5.0,5.0,33,0.00,,,0.00,Wunderground v.1.15,2013-01-30 23:40:00,
2013-01-30 16:45:00,40.3,14.1,30.40,NW,311,7.0,8.0,34,0.00,,,0.00,Wunderground v.1.15,2013-01-30 23:45:00,
2013-01-30 16:55:00,39.8,13.7,30.40,North,349,9.0,16.0,34,0.00,,,0.00,Wunderground v.1.15,2013-01-30 23:55:00,
2013-01-30 17:00:00,39.7,14.2,30.40,NNE,25,9.0,12.0,35,0.00,,,0.00,Wunderground v.1.15,2013-01-31 00:00:00,
2013-01-30 17:10:00,39.5,14.1,30.41,NW,322,8.0,8.0,35,0.00,,,0.00,Wunderground v.1.15,2013-01-31 00:10:00,
2013-01-30 17:15:00,39.2,14.4,30.41,NW,319,8.0,9.0,36,0.00,,,0.00,Wunderground v.1.15,2013-01-31 00:15:00,
2013-01-30 17:25:00,38.9,14.2,30.41,NE,34,9.0,13.0,36,0.00,,,0.00,Wunderground v.1.15,2013-01-31 00:25:00,
2013-01-30 17:30:00,38.8,14.1,30.41,North,352,9.0,9.0,36,0.00,,,0.00,Wunderground v.1.15,2013-01-31 00:30:00,
2013-01-30 17:40:00,38.4,14.4,30.41,NNE,18,6.0,9.0,37,0.00,,,0.00,Wunderground v.1.15,2013-01-31 00:40:00,
2013-01-30 17:50:00,38.1,14.7,30.41,NNW,331,6.0,6.0,38,0.00,,,0.00,Wunderground v.1.15,2013-01-31 00:50:00,
2013-01-30 17:55:00,38.1,14.7,30.42,NNE,26,5.0,6.0,38,0.00,,,0.00,Wunderground v.1.15,2013-01-31 00:55:00,
2013-01-30 18:00:00,38.0,14.6,30.42,North,356,5.0,9.0,38,0.00,,,0.00,Wunderground v.1.15,2013-01-31 01:00:00,
2013-01-30 18:10:00,37.9,14.5,30.42,NW,316,5.0,6.0,38,0.00,,,0.00,Wunderground v.1.15,2013-01-31 01:10:00,
2013-01-30 18:20:00,38.1,14.7,30.42,North,11,5.0,5.0,38,0.00,,,0.00,Wunderground v.1.15,2013-01-31 01:20:00,
2013-01-30 18:30:00,38.0,14.6,30.42,NNW,345,5.0,5.0,38,0.00,,,0.00,Wunderground v.1.15,2013-01-31 01:30:00,
2013-01-30 18:35:00,38.1,14.7,30.43,NNW,330,6.0,6.0,38,0.00,,,0.00,Wunderground v.1.15,2013-01-31 01:35:00,
2013-01-30 18:40:00,38.1,14.7,30.43,NNW,339,6.0,6.0,38,0.00,,,0.00,Wunderground v.1.15,2013-01-31 01:40:00,
2013-01-30 18:50:00,37.8,15.0,30.42,NNW,336,4.0,4.0,39,0.00,,,0.00,Wunderground v.1.15,2013-01-31 01:50:00,
2013-01-30 19:00:00,37.7,14.9,30.43,NNW,338,4.0,4.0,39,0.00,,,0.00,Wunderground v.1.15,2013-01-31 02:00:00,
2013-01-30 19:10:00,37.6,15.4,30.43,NNE,20,3.0,3.0,40,0.00,,,0.00,Wunderground v.1.15,2013-01-31 02:10:00,
2013-01-30 19:15:00,37.5,15.3,30.43,North,4,3.0,3.0,40,0.00,,,0.00,Wunderground v.1.15,2013-01-31 02:15:00,
2013-01-30 19:25:00,37.5,15.3,30.44,NW,322,3.0,3.0,40,0.00,,,0.00,Wunderground v.1.15,2013-01-31 02:25:00,
2013-01-30 19:35:00,36.9,15.9,30.44,NNE,14,0.0,1.0,42,0.00,,,0.00,Wunderground v.1.15,2013-01-31 02:35:00,
2013-01-30 19:45:00,36.7,15.7,30.44,NNW,329,1.0,2.0,42,0.00,,,0.00,Wunderground v.1.15,2013-01-31 02:45:00,
2013-01-30 19:50:00,36.6,16.2,30.44,North,349,1.0,1.0,43,0.00,,,0.00,Wunderground v.1.15,2013-01-31 02:50:00,
2013-01-30 20:00:00,36.3,15.9,30.43,NNE,27,1.0,1.0,43,0.00,,,0.00,Wunderground v.1.15,2013-01-31 03:00:00,
2013-01-30 20:10:00,35.8,16.0,30.43,NNE,20,0.0,0.0,44,0.00,,,0.00,Wunderground v.1.15,2013-01-31 03:10:00,
2013-01-30 20:20:00,34.9,16.2,30.44,NNE,27,0.0,0.0,46,0.00,,,0.00,Wunderground v.1.15,2013-01-31 03:20:00,
2013-01-30 20:25:00,34.8,16.1,30.44,NNE,32,0.0,0.0,46,0.00,,,0.00,Wunderground v.1.15,2013-01-31 03:25:00,
2013-01-30 20:35:00,34.2,16.0,30.43,East,96,0.0,0.0,47,0.00,,,0.00,Wunderground v.1.15,2013-01-31 03:35:00,
2013-01-30 20:45:00,34.0,16.3,30.43,NNE,27,0.0,1.0,48,0.00,,,0.00,Wunderground v.1.15,2013-01-31 03:45:00,
2013-01-30 20:55:00,34.4,16.7,30.44,NE,36,1.0,2.0,48,0.00,,,0.00,Wunderground v.1.15,2013-01-31 03:55:00,
2013-01-30 21:00:00,34.5,16.8,30.44,NE,34,0.0,0.0,48,0.00,,,0.00,Wunderground v.1.15,2013-01-31 04:00:00,
2013-01-30 21:10:00,33.9,16.3,30.44,SW,236,0.0,0.0,48,0.00,,,0.00,Wunderground v.1.15,2013-01-31 04:10:00,
2013-01-30 21:20:00,33.0,16.4,30.45,SW,236,0.0,0.0,50,0.00,,,0.00,Wunderground v.1.15,2013-01-31 04:20:00,
2013-01-30 21:30:00,32.9,16.3,30.44,WSW,243,0.0,0.0,50,0.00,,,0.00,Wunderground v.1.15,2013-01-31 04:30:00,
2013-01-30 21:40:00,32.1,16.4,30.44,SSW,203,0.0,0.0,52,0.00,,,0.00,Wunderground v.1.15,2013-01-31 04:40:00,
2013-01-30 21:50:00,31.4,16.7,30.44,SSE,153,0.0,0.0,54,0.00,,,0.00,Wunderground v.1.15,2013-01-31 04:50:00,
2013-01-30 22:05:00,30.6,16.7,30.44,ESE,117,0.0,0.0,56,0.00,,,0.00,Wunderground v.1.15,2013-01-31 05:05:00,
2013-01-30 22:10:00,30.2,16.8,30.44,ESE,117,0.0,0.0,57,0.00,,,0.00,Wunderground v.1.15,2013-01-31 05:10:00,
2013-01-30 22:15:00,30.0,17.0,30.44,ESE,117,0.0,0.0,58,0.00,,,0.00,Wunderground v.1.15,2013-01-31 05:15:00,
2013-01-30 22:20:00,30.0,17.0,30.44,ESE,119,0.0,0.0,58,0.00,,,0.00,Wunderground v.1.15,2013-01-31 05:20:00,
2013-01-30 22:30:00,30.1,16.7,30.44,SE,132,1.0,2.0,57,0.00,,,0.00,Wunderground v.1.15,2013-01-31 05:30:00,
2013-01-30 22:35:00,30.8,16.5,30.45,SE,130,1.0,2.0,55,0.00,,,0.00,Wunderground v.1.15,2013-01-31 05:35:00,
2013-01-30 22:45:00,30.5,16.7,30.45,SSE,160,1.0,2.0,56,0.00,,,0.00,Wunderground v.1.15,2013-01-31 05:45:00,
2013-01-30 22:55:00,30.7,16.4,30.45,East,94,1.0,3.0,55,0.00,,,0.00,Wunderground v.1.15,2013-01-31 05:55:00,
2013-01-30 23:00:00,31.0,16.3,30.45,ESE,119,2.0,2.0,54,0.00,,,0.00,Wunderground v.1.15,2013-01-31 06:00:00,
2013-01-30 23:10:00,31.1,16.4,30.45,SE,128,2.0,3.0,54,0.00,,,0.00,Wunderground v.1.15,2013-01-31 06:10:00,
2013-01-30 23:15:00,30.9,16.2,30.45,SE,131,2.0,5.0,54,0.00,,,0.00,Wunderground v.1.15,2013-01-31 06:15:00,
2013-01-30 23:25:00,30.9,16.6,30.46,East,84,2.0,5.0,55,0.00,,,0.00,Wunderground v.1.15,2013-01-31 06:25:00,
2013-01-30 23:35:00,31.2,16.9,30.45,East,96,1.0,2.0,55,0.00,,,0.00,Wunderground v.1.15,2013-01-31 06:35:00,
2013-01-30 23:40:00,31.1,16.8,30.46,SSE,163,0.0,2.0,55,0.00,,,0.00,Wunderground v.1.15,2013-01-31 06:40:00,
2013-01-30 23:50:00,31.0,16.7,30.46,SE,142,2.0,2.0,55,0.00,,,0.00,Wunderground v.1.15,2013-01-31 06:50:00,